Weather History for KEVV - September, 2011

Change the Weather History Date:

Sunday, September 11, 2011

  Actual Average Record
Temperature  
Mean Temperature 69 °F 71 °F  
Max Temperature 80 °F 83 °F 99 °F (1897)
Min Temperature 58 °F 59 °F 43 °F (1940)
Degree Days  
Heating Degree Days 0 1  
Month to date heating degree days 7 1  
Since 1 July heating degree days 7 2  
Cooling Degree Days 4 7  
Month to date cooling degree days 79 90  
Year to date cooling degree days 1584 1289  
Growing Degree Days 19 (Base 50)    
Moisture  
Dew Point 60 °F    
Average Humidity 76    
Maximum Humidity 97    
Minimum Humidity 54    
Precipitation  
Precipitation T in 0.11 in 3.14 in (1965)
Month to date precipitation 0.60 1.10  
Year to date precipitation 45.58 32.02  
Snow  
Snow 0.00 in 0.00 in 0.00 in (2002)
Month to date snowfall 0.0 0.0  
Since 1 July snowfall 0.0 0.0  
Since 1 September snowfall 0.0 0.0  
Snow Depth 0.00 in    
Sea Level Pressure  
Sea Level Pressure 30.05 in    
Wind  
Wind Speed 1 mph (South)    
Max Wind Speed 13 mph    
Max Gust Speed 18 mph    
Visibility 7 miles    
Events      
T = Trace of Precipitation, MM = Missing Value Source: NWS Daily Summary

Daily Weather History Graph

Daily Weather History Graph

Search for Another Location

Airport or City:

Trip Planner

Search our weather history database for the weather conditions in past years. The results will help you decide how hot, cold, wet, or windy it might be!

Date:

Astronomy

Sep. 11, 2011 Rise Set
Actual Time 6:28 AM CDT 7:04 PM CDT
Civil Twilight 6:01 AM CDT 7:31 PM CDT
Nautical Twilight 5:30 AM CDT 8:02 PM CDT
Astronomical Twilight 4:58 AM CDT 8:34 PM CDT
Moon 6:27 PM CDT (9/11) 5:46 AM CDT (9/11)
Length of Visible Light 13h 29m
Length of Day
12h 36m
Full, 100% of the Moon is Illuminated
Sep 11
Full
Sep 12
Full
Sep 20
Last Quarter
Sep 27
New
Oct 3
First Quarter

Hourly Weather History & Observations

Time (CDT) Temp. Dew Point Humidity Pressure Visibility Wind Dir Wind Speed Gust Speed Precip Events Conditions
12:54 AM 60.1 °F 57.0 °F 90% 30.02 in 8.0 mi ENE 3.5 mph - N/A   Clear
1:54 AM 59.0 °F 57.0 °F 93% 30.01 in 7.0 mi Calm Calm - N/A   Clear
2:54 AM 59.0 °F 57.0 °F 93% 30.01 in 5.0 mi Calm Calm - N/A   Clear
3:07 AM 59.0 °F 57.2 °F 94% 30.02 in 1.8 mi Calm Calm - N/A   Partly Cloudy
3:16 AM 59.0 °F 57.2 °F 94% 30.02 in 3.0 mi Calm Calm - N/A   Partly Cloudy
3:37 AM 59.0 °F 57.2 °F 94% 30.02 in 1.8 mi Calm Calm - N/A   Scattered Clouds
3:46 AM 59.0 °F 55.4 °F 88% 30.02 in 3.0 mi Calm Calm - N/A   Mostly Cloudy
3:54 AM 59.0 °F 57.0 °F 93% 30.02 in 8.0 mi Calm Calm - N/A   Mostly Cloudy
4:54 AM 59.0 °F 57.0 °F 93% 30.02 in 6.0 mi Calm Calm - N/A   Overcast
5:26 AM 60.8 °F 57.2 °F 88% 30.04 in 6.0 mi Calm Calm - N/A   Overcast
5:54 AM 61.0 °F 57.9 °F 90% 30.04 in 6.0 mi Calm Calm - N/A   Overcast
6:54 AM 60.8 °F 57.2 °F 88% 30.05 in 4.0 mi Calm Calm - N/A   Overcast
7:54 AM 63.0 °F 60.1 °F 90% 30.06 in 4.0 mi Calm Calm - N/A   Mostly Cloudy
8:54 AM 68.0 °F 61.0 °F 78% 30.06 in 7.0 mi Calm Calm - N/A   Clear
9:54 AM 73.0 °F 61.0 °F 66% 30.08 in 10.0 mi Calm Calm - N/A   Clear
10:54 AM 73.9 °F 61.0 °F 64% 30.08 in 10.0 mi Calm Calm - N/A   Partly Cloudy
11:14 AM 75.2 °F 60.8 °F 61% 30.09 in 10.0 mi Variable 4.6 mph - N/A   Mostly Cloudy
11:28 AM 75.2 °F 60.8 °F 61% 30.08 in 10.0 mi Calm Calm - N/A   Scattered Clouds
11:54 AM 75.9 °F 61.0 °F 60% 30.07 in 10.0 mi Variable 5.8 mph - N/A   Mostly Cloudy
12:54 PM 78.1 °F 60.1 °F 54% 30.06 in 10.0 mi Calm Calm - N/A   Mostly Cloudy
1:54 PM 75.9 °F 60.1 °F 58% 30.05 in 10.0 mi WSW 5.8 mph - N/A   Mostly Cloudy
2:11 PM 73.4 °F 62.6 °F 69% 30.05 in 10.0 mi South 9.2 mph - N/A   Scattered Clouds
2:54 PM 79.0 °F 61.0 °F 54% 30.02 in 10.0 mi SSE 6.9 mph - N/A   Scattered Clouds
3:54 PM 77.0 °F 59.0 °F 54% 30.01 in 10.0 mi Calm Calm - N/A   Scattered Clouds
4:54 PM 73.0 °F 62.1 °F 68% 30.01 in 10.0 mi SSW 5.8 mph - 0.00 in   Scattered Clouds
5:54 PM 75.9 °F 62.1 °F 62% 30.01 in 10.0 mi Calm Calm - N/A   Clear
6:54 PM 73.0 °F 64.0 °F 73% 30.02 in 10.0 mi Calm Calm - N/A   Clear
7:54 PM 69.8 °F 62.6 °F 78% 30.05 in 10.0 mi Calm Calm - N/A   Clear
8:54 PM 66.9 °F 63.0 °F 87% 30.06 in 9.0 mi Calm Calm - N/A   Clear
9:54 PM 66.0 °F 62.1 °F 87% 30.07 in 9.0 mi SE 3.5 mph - N/A   Clear
10:54 PM 64.0 °F 61.0 °F 90% 30.07 in 6.0 mi Calm Calm - N/A   Clear
11:11 PM 64.4 °F 60.8 °F 88% 30.08 in 1.8 mi Calm Calm - N/A   Clear
11:17 PM 64.4 °F 60.8 °F 88% 30.08 in 0.8 mi Calm Calm - N/A   Clear
11:23 PM 62.6 °F 60.8 °F 94% 30.08 in 1.5 mi Calm Calm - N/A   Clear
11:41 PM 62.6 °F 60.8 °F 94% 30.08 in 3.0 mi Calm Calm - N/A   Clear
11:54 PM 61.0 °F 59.0 °F 93% 30.07 in 2.0 mi Calm Calm - N/A   Clear